User: anonymous
Location: Parc des �les de St-Timoth�e
(45.2924°N, 74.0481°W)
Time: 02:05:09
(UTC-04:00)
Language:

Cosmos 2173 Rocket - Orbit

View from above orbital plane
View from above orbital plane
View from above satellite
View from above satellite

Ground track
Ground track

The orbit data is extracted from the following two-line orbital elements,

1 21797U 91081B   14261.08864840  .00000179  00000-0  16388-3 0  5157
2 21797 082.9504 087.0566 0038112 020.7893 100.1756 13.77285894146311
Epoch (UTC): 18 September 2014 02:07:39
Eccentricity: 0.0038112
inclination: 82.9504°
perigee height: 945 km
apogee height: 1001 km
right ascension of ascending node: 87.0566°
argument of perigee: 20.7893°
revolutions per day: 13.77285894
mean anomaly at epoch: 100.1756°
orbit number at epoch: 14631

The dashed part of the orbit path shows where the satellite is in the earth's shadow,  

DLR